Hourly Data Report for December 17, 2020

CARBERRY CS
MANITOBA
Current Station Operator: ECCC - MSC

49°54'20.900" N
99°21'26.800" W
383.50 m
5010547
71170
WZE

Download Data

Hourly Data (December 2020)
Hourly Data Report for December 17, 2020
TIME
LST
Temp Definition
°C
Dew Point Definition
°C
Rel Hum Definition
%
Precip. Amount Definition
mm

Wind Dir Definition
10's deg

Wind Spd Definition
km/h
Visibility Definition
km
Stn Press Definition
kPa
Hmdx Definition


Wind Chill Definition


Weather Definition


00:00 -10.2 -11.7 89 0.0 25 8   96.52   -15 LegendNANA
01:00 -10.1 -11.6 89 0.0 24 6   96.51   -14 LegendNANA
02:00 -9.2 -10.8 88 0.0 26 14   96.53   -16 LegendNANA
03:00 -9.8 -11.7 86 0.0 25 12   96.56   -16 LegendNANA
04:00 -11.1 -12.4 90 0.0 27 15   96.61   -18 LegendNANA
05:00 -12.1 -13.4 90 0.0 22 5   96.55   -15 LegendNANA
06:00 -13.9 -15.2 90 0.0 19 9   96.54   -20 LegendNANA
07:00 -13.4 -14.5 91 0.0 18 5   96.55   -17 LegendNANA
08:00 -14.1 -15.5 89 0.0 18 6   96.54   -18 LegendNANA
09:00 -13.0 -14.5 89 0.0 17 8   96.52   -18 LegendNANA
10:00 -11.1 -13.3 83 0.0 21 5   96.56   -14 LegendNANA
11:00 -7.9 -11.0 78 0.0 15 3   96.50   -9 LegendNANA
12:00 -6.0 -9.6 76 0.0 14 10   96.40   -10 LegendNANA
13:00 -4.7 -8.6 74 0.0 16 11   96.35   -9 LegendNANA
14:00 -3.7 -7.6 74 0.0 15 11   96.32   -8 LegendNANA
15:00 -2.6 -6.8 73 0.0 14 12   96.26   -7 LegendNANA
16:00 -2.8 -6.0 79 0.0 14 14   96.18   -8 LegendNANA
17:00 -2.8 -5.6 81 0.0 16 15   96.17   -8 LegendNANA
18:00 -3.3 -5.9 82 0.0 16 18   96.11   -9 LegendNANA
19:00 -2.9 -5.6 81 0.0 16 20   96.05   -9 LegendNANA
20:00 -2.6 -5.4 81 0.0 16 20   95.97   -9 LegendNANA
21:00 -1.8 -4.8 80 0.0 17 25   95.96   -8 LegendNANA
22:00 -1.5 -4.4 81 0.0 17 32   95.90   -9 LegendNANA
23:00 -1.5 -4.5 80 0.0 17 26   95.91   -8 LegendNANA

Notes on Data Quality.

Legend

  • E = Estimated
  • M = Missing
  • NA = Not Available*
  • [empty] = Indicates an unobserved value
Date modified: